Location: Carnetin
(48.9010°N, 2.7059°E)
Time: 10:11:37
(UTC+00:00)

Cosmos 1825 - Pass Details

Date: 02 June 2022
Orbit: 496 x 498 km, 82.5° (Epoch: 30 June)

Event Time Altitude Azimuth Distance (km) Brightness Sun altitude
Exits shadow 02:34:01 - 170° (S) 2,230 5.0 -9.8°
Reaches altitude 10° 02:35:21 10° 165° (SSE) 1,694 4.5 -9.6°
Maximum altitude 02:38:52 42° 94° (E) 722 3.2 -9.3°
Drops below altitude 10° 02:42:25 10° 23° (NNE) 1,710 6.2 -8.9°
Sets 02:44:36 0° 16° (NNE) 2,599 7.1 -8.7°
